[[{"header":{"parameterUnit":"m.s-1","parameterCategory":2,"la1":30.2991,"la2":30.254,"lo1":-89.0895,"lo2":-89.0444,"dy":0.0017,"dx":0.0017,"nx":28,"ny":28,"refTime":"2025-05-26T21:00:00:Z","depth":"0","parameterNumber":2,"parameterNumberName":"U-component_of_CURRENTS"},"data":[0,0,0,0,0,0,0,0,0,0,0,0,0,0,0,0,0,0,0,0,0,0,0,0,0,0,0,0,0,0,0,0,0,0,0,0,0,0,0,0,0,0,0,0,0,0,0,0,0,0,0,0,0,0,0,0,0,0,0.2033,0.2033,0,0.2036,0.2036,0.2036,0.2011,0.201,0.201,0.201,0.1992,0.1992,0.1992,0,0,0,0,0,0,0,0,0,0,0,0,0,0.204,0.204,0.2033,0.2033,0.2034,0.2036,0.2036,0.2036,0.2011,0.201,0.201,0.2009,0.1992,0.1992,0.1992,0,0,0,0,0,0,0,0,0,0,0,0,0,0.2037,0.204,0.2033,0.2024,0.2023,0.2037,0.2036,0.2036,0.2011,0.201,0.201,0.2009,0.1992,0.1992,0.1992,0.2004,0,0,0.1991,0.1991,0,0,0,0,0,0,0,0,0.2037,0.2036,0.2025,0.2024,0.2024,0.2025,0.2032,0.2025,0.2011,0.2012,0.201,0.2009,0.2003,0.2002,0.2,0.2003,0.2002,0.1991,0.1991,0.1991,0.1991,0,0,0,0,0,0,0,0.2037,0.2036,0.2031,0.2025,0.2025,0.2032,0.203,0.2031,0.2009,0.2012,0.2011,0.2017,0.2003,0.2,0.2,0.2002,0.1991,0.1991,0.1991,0.1991,0.2094,0.2097,0,0,0,0,0,0,0.2042,0.2036,0.2031,0.2032,0.2033,0.2032,0.203,0.2023,0.2009,0.2007,0.2017,0.2016,0.2001,0.2,0.1999,0.2059,0.1991,0.1991,0.1991,0.2092,0.2095,0.2098,0,0,0,0,0,0,0.2042,0.2041,0.2031,0.2037,0.2037,0.2033,0.2025,0.2023,0.2025,0.2014,0.2011,0.2022,0.2,0.1999,0.2015,0.2056,0.1991,0.1991,0.2088,0.2093,0.2096,0.2149,0,0,0,0,0,0,0.2042,0.204,0.2041,0.2037,0.2037,0.205,0.2026,0.2024,0.2031,0.2029,0.2017,0.2014,0.2,0.2015,0.2015,0.2055,0.1991,0.2085,0.209,0.2095,0.2144,0.2155,0.2164,0,0,0,0,0,0.2042,0.2047,0.2041,0.2041,0.2036,0.2051,0.2052,0.2045,0.2032,0.2042,0.2037,0.2015,0.205,0.2017,0.2015,0.2057,0.2082,0.2089,0.2095,0.2139,0.2153,0.2164,0,0,0,0,0,0,0.2052,0.2045,0.2038,0.2041,0.2051,0.2049,0.2058,0.2052,0.2055,0.2052,0.2033,0.2031,0.2068,0.206,0.2025,0.2109,0.207,0.2076,0.2105,0.2117,0.2127,0.2153,0.1991,0,0,0,0,0,0.2055,0.2052,0.2056,0.2058,0.2065,0.2062,0.2068,0.2066,0.2067,0.2067,0.2061,0.207,0.2095,0.21,0.2115,0.2146,0.2174,0.2182,0.2192,0.22,0.2225,0.2342,0.2365,0.2119,0.2119,0.2119,0,0,0.2059,0.2056,0.2054,0.2061,0.2064,0.2083,0.2063,0.2078,0.21,0.2066,0.2092,0.2099,0.2113,0.2154,0.2172,0.2149,0.2274,0.2208,0.2214,0.2236,0.2351,0.2375,0.2397,0.2123,0.2122,0.2122,0,0,0.2071,0.2065,0.207,0.2083,0.2097,0.2103,0.2111,0.2118,0.2128,0.2153,0.215,0.219,0.22,0.2235,0.225,0.233,0.2325,0.2332,0.2397,0.251,0.2531,0.255,0.2563,0.2584,0.2335,0.2335,0.2335,0,0.2077,0.2081,0.2078,0.2095,0.2112,0.2114,0.2138,0.2155,0.2169,0.2195,0.2171,0.2246,0.225,0.2331,0.2363,0.2354,0.2384,0.2339,0.2523,0.2543,0.2562,0.2571,0.2593,0.2338,0.2338,0.2337,0.2337,0,0.2093,0.2105,0.2114,0.2131,0.2154,0.2175,0.2202,0.2231,0.2241,0.2262,0.2336,0.2354,0.2402,0.2419,0.241,0.2548,0.2511,0.252,0.2487,0.259,0.2592,0.2614,0.2343,0.2342,0.2341,0.234,0,0,0.2084,0.2116,0.2121,0.2146,0.2175,0.2202,0.225,0.2306,0.2362,0.2383,0.246,0.2515,0.2528,0.2551,0.2558,0.2657,0.2793,0.2649,0.2653,0.2651,0.2983,0.2708,0.2704,0.2841,0.2847,0.2851,0.2911,0,0.2097,0.2133,0.215,0.2205,0.223,0.2264,0.2322,0.2377,0.242,0.2497,0.2543,0.2615,0.2576,0.2615,0.2705,0.2794,0.2862,0.2772,0.2895,0.2897,0.2634,0.2726,0.2537,0.2555,0.2932,0.2935,0.2938,0,0.2105,0.2133,0.2175,0.2258,0.2277,0.2318,0.2422,0.2478,0.2581,0.2617,0.2684,0.2713,0.2834,0.2801,0.2977,0.2923,0.2958,0.301,0.3014,0.2762,0.2664,0.2527,0.2579,0.2468,0.2971,0.2968,0.2966,0,0.2095,0.2158,0.2195,0.2216,0.2303,0.235,0.2413,0.2515,0.2589,0.2704,0.2772,0.2873,0.2948,0.3048,0.3087,0.3073,0.3267,0.3256,0.3024,0.3002,0.2866,0.2821,0.282,0.3393,0.3393,0.3392,0.3392,0,0.2099,0.2136,0.2199,0.2221,0.2314,0.2371,0.2486,0.2559,0.2679,0.2784,0.2838,0.2926,0.3033,0.3116,0.3148,0.3116,0.3304,0.3049,0.3023,0.2866,0.2822,0.2735,0.2704,0.3395,0.3394,0.3394,0.3393,0,0.2083,0.2111,0.2171,0.2264,0.2305,0.2376,0.2525,0.2625,0.2723,0.2862,0.2906,0.3018,0.3081,0.3111,0.3255,0.3161,0.3056,0.3123,0.2857,0.2795,0.2393,0.2371,0.2289,0.2243,0.2881,0.2875,0.287,0,0.2079,0.2098,0.2196,0.2259,0.2306,0.2417,0.2518,0.2633,0.273,0.2906,0.298,0.3052,0.3052,0.3065,0.2934,0.2855,0.2843,0.2622,0.2549,0.2342,0.2307,0.2264,0.2235,0.2394,0.2385,0.2378,0.2372,0,0.209,0.2114,0.217,0.2288,0.2389,0.2496,0.2629,0.2686,0.2829,0.2901,0.2981,0.2988,0.2903,0.2674,0.2499,0.246,0.2422,0.2462,0.2402,0.2032,0.1851,0.18,0.2322,0.231,0.2316,0.232,0.2324,0.2326,0.2112,0.2152,0.2231,0.2343,0.2449,0.2546,0.2579,0.2676,0.2746,0.2767,0.2872,0.2734,0.249,0.2167,0.2104,0.1771,0.191,0.1671,0.1694,0.1695,0.1545,0.1829,0.1675,0.1678,0.168,0.1682,0.1684,0,0.2152,0.2204,0.2303,0.2402,0.2481,0.2546,0.264,0.2606,0.258,0.2548,0.2511,0.214,0.1837,0.1621,0.1228,0.1058,0.1105,0.1018,0.1015,0.1057,0.1447,0.1313,0.0888,0.0888,0.0888,0.0888,0.0888,0.0888,0.2185,0.226,0.2296,0.2403,0.2462,0.2479,0.2483,0.2397,0.2308,0.2019,0.1737,0.1616,0.1351,0.0931,0.0617,0.0595,0.0598,0.0452,0.0577,0.0905,0.0972,0.1036,0.0906,0.0402,0.0401,0.0147,0.0144,0.0142]},{"header":{"parameterUnit":"m.s-1","parameterCategory":2,"la1":30.2991,"la2":30.254,"lo1":-89.0895,"lo2":-89.0444,"dy":0.0017,"dx":0.0017,"nx":28,"ny":28,"refTime":"2025-05-26T21:00:00:Z","depth":"0","parameterNumber":3,"parameterNumberName":"V-component_of_CURRENTS"},"data":[0,0,0,0,0,0,0,0,0,0,0,0,0,0,0,0,0,0,0,0,0,0,0,0,0,0,0,0,0,0,0,0,0,0,0,0,0,0,0,0,0,0,0,0,0,0,0,0,0,0,0,0,0,0,0,0,0,0,0.027,0.027,0,0.0303,0.0303,0.0303,0.0314,0.0313,0.0313,0.0313,0.0324,0.0324,0.0324,0,0,0,0,0,0,0,0,0,0,0,0,0,0.0228,0.0228,0.027,0.027,0.0271,0.0303,0.0303,0.0304,0.0314,0.0313,0.0313,0.0313,0.0323,0.0324,0.0324,0,0,0,0,0,0,0,0,0,0,0,0,0,0.0252,0.0229,0.027,0.028,0.0281,0.0303,0.0303,0.0304,0.0314,0.0313,0.0313,0.0313,0.0323,0.0324,0.0324,0.0332,0,0,0.0326,0.0327,0,0,0,0,0,0,0,0,0.025,0.0253,0.0278,0.0279,0.0281,0.0304,0.0292,0.0312,0.0314,0.0301,0.0313,0.0313,0.0315,0.0317,0.0323,0.0333,0.0333,0.0326,0.0327,0.0327,0.0327,0,0,0,0,0,0,0,0.0249,0.0252,0.0283,0.0278,0.028,0.0287,0.029,0.0296,0.0308,0.0302,0.0303,0.0307,0.0316,0.0323,0.0323,0.0333,0.0326,0.0327,0.0327,0.0328,0.0371,0.0372,0,0,0,0,0,0,0.0245,0.025,0.0282,0.0284,0.0265,0.0288,0.0291,0.0297,0.0309,0.0311,0.0307,0.0307,0.0322,0.0323,0.0324,0.0353,0.0327,0.0328,0.0328,0.0371,0.0372,0.0373,0,0,0,0,0,0,0.0244,0.0247,0.028,0.0268,0.0272,0.0288,0.0295,0.0297,0.0305,0.0313,0.0314,0.0313,0.0322,0.0323,0.0336,0.0352,0.0328,0.0328,0.037,0.0371,0.0372,0.0398,0,0,0,0,0,0,0.0242,0.0247,0.025,0.0268,0.0273,0.0298,0.0295,0.0298,0.0308,0.0309,0.0318,0.0319,0.0321,0.0335,0.0337,0.0353,0.0329,0.0369,0.037,0.0372,0.0396,0.04,0.0403,0,0,0,0,0,0.0241,0.0248,0.025,0.0253,0.0276,0.0299,0.0302,0.0312,0.0309,0.0318,0.0324,0.0319,0.0346,0.0336,0.0338,0.0354,0.0368,0.037,0.0372,0.0394,0.0399,0.0403,0,0,0,0,0,0,0.0232,0.0251,0.0252,0.0265,0.0281,0.03,0.0309,0.0313,0.0326,0.0325,0.0327,0.0329,0.0348,0.0347,0.0336,0.0372,0.0357,0.0359,0.0374,0.0378,0.0382,0.0404,0.0329,0,0,0,0,0,0.0231,0.0242,0.026,0.027,0.0278,0.0292,0.0301,0.031,0.0323,0.0328,0.0334,0.0343,0.0357,0.0363,0.0374,0.0391,0.0416,0.0403,0.0406,0.0409,0.0429,0.051,0.0524,0.0378,0.0378,0.0378,0,0,0.023,0.0242,0.0248,0.0269,0.0281,0.0305,0.0297,0.0315,0.0336,0.0327,0.0352,0.0354,0.0364,0.0387,0.0395,0.0388,0.0454,0.0412,0.0414,0.0433,0.0514,0.0528,0.0541,0.038,0.0379,0.0379,0,0,0.0242,0.0244,0.0261,0.0278,0.03,0.0312,0.0317,0.0338,0.0346,0.037,0.037,0.0386,0.04,0.0418,0.0427,0.0456,0.047,0.0452,0.049,0.0568,0.0581,0.0593,0.0602,0.0615,0.0455,0.0455,0.0455,0,0.024,0.0267,0.027,0.0295,0.0313,0.0316,0.0344,0.0357,0.038,0.0394,0.0382,0.0427,0.0422,0.0468,0.0474,0.0466,0.0495,0.0471,0.0575,0.0588,0.06,0.0606,0.062,0.0456,0.0456,0.0456,0.0456,0,0.0271,0.0294,0.0306,0.0339,0.0355,0.038,0.0398,0.0412,0.0418,0.0436,0.0475,0.0482,0.0512,0.0508,0.0498,0.0575,0.0559,0.057,0.0567,0.0616,0.0618,0.0632,0.0458,0.0458,0.0457,0.0457,0,0,0.0269,0.0318,0.0324,0.0351,0.0382,0.0403,0.043,0.0465,0.0495,0.0513,0.0571,0.0578,0.0584,0.0595,0.059,0.0648,0.0726,0.0646,0.0649,0.0658,0.0863,0.0802,0.0811,0.077,0.0773,0.0776,0.0815,0,0.0297,0.0353,0.0367,0.0421,0.0453,0.0463,0.049,0.0519,0.0542,0.0597,0.0618,0.0665,0.0617,0.064,0.069,0.0747,0.0772,0.0712,0.0812,0.0813,0.0759,0.083,0.0823,0.0856,0.0829,0.0831,0.0833,0,0.0326,0.0364,0.042,0.0472,0.0484,0.0512,0.056,0.0588,0.0649,0.0668,0.0718,0.0744,0.0822,0.0781,0.0887,0.0859,0.0853,0.0877,0.088,0.0833,0.0782,0.0811,0.0882,0.0915,0.0854,0.0853,0.0851,0,0.0337,0.04,0.0448,0.0468,0.0522,0.0543,0.0567,0.0611,0.0651,0.0731,0.0799,0.086,0.0944,0.0973,0.099,0.0963,0.1111,0.1078,0.0996,0.0988,0.1008,0.0997,0.1134,0.1134,0.1134,0.1133,0.1133,0,0.0367,0.0405,0.0458,0.0489,0.054,0.0565,0.062,0.0647,0.0723,0.0823,0.0846,0.0962,0.1013,0.1091,0.1056,0.1081,0.1156,0.1023,0.102,0.1008,0.0997,0.1044,0.1043,0.1135,0.1135,0.1134,0.1134,0,0.0377,0.0412,0.0473,0.0534,0.0551,0.0589,0.0653,0.0706,0.0768,0.0916,0.0961,0.1091,0.1196,0.1187,0.126,0.1187,0.1196,0.1153,0.1093,0.1082,0.1014,0.1013,0.1102,0.1135,0.1087,0.1086,0.1085,0,0.039,0.0424,0.0501,0.0542,0.0573,0.0626,0.0669,0.0719,0.08,0.1011,0.1115,0.1249,0.1363,0.1401,0.1302,0.1214,0.1199,0.1118,0.1056,0.1036,0.1034,0.1012,0.1033,0.1073,0.1072,0.1071,0.1071,0,0.042,0.0446,0.0499,0.0582,0.064,0.0705,0.0788,0.0857,0.0977,0.1123,0.1354,0.1463,0.1492,0.1449,0.1291,0.1216,0.1146,0.1098,0.1145,0.1096,0.1023,0.1043,0.0967,0.1065,0.1065,0.1066,0.1066,0.1066,0.0441,0.0483,0.0557,0.0633,0.0706,0.081,0.088,0.1009,0.1167,0.1419,0.1506,0.1656,0.1563,0.1368,0.1289,0.1112,0.1105,0.1048,0.1059,0.1047,0.1061,0.0925,0.0976,0.0976,0.0976,0.0976,0.0976,0,0.0478,0.0528,0.0605,0.0708,0.0795,0.0826,0.0983,0.1092,0.1311,0.1496,0.1681,0.165,0.1554,0.1398,0.1164,0.1098,0.1084,0.1073,0.1089,0.1124,0.1077,0.1059,0.1052,0.1052,0.1052,0.1052,0.1052,0.1052,0.0504,0.0578,0.0618,0.0765,0.0841,0.0976,0.1072,0.127,0.1415,0.1611,0.1634,0.1655,0.1537,0.1296,0.1181,0.1155,0.1196,0.1119,0.117,0.1171,0.1171,0.1171,0.1158,0.1172,0.1172,0.1226,0.1227,0.1227]}],[{"header":{"parameterUnit":"m.s-1","parameterCategory":2,"la1":30.2991,"la2":30.254,"lo1":-89.0895,"lo2":-89.0444,"dy":0.0017,"dx":0.0017,"nx":28,"ny":28,"refTime":"2025-05-26T21:00:00:Z","depth":"2","parameterNumber":2,"parameterNumberName":"U-component_of_CURRENTS"},"data":[0,0,0,0,0,0,0,0,0,0,0,0,0,0,0,0,0,0,0,0,0,0,0,0,0,0,0,0,0,0,0,0,0,0,0,0,0,0,0,0,0,0,0,0,0,0,0,0,0,0,0,0,0,0,0,0,0,0,0.1688,0.1688,0,0.1684,0.1684,0.1684,0.1681,0.1681,0.1681,0.168,0.1676,0.1676,0.1676,0,0,0,0,0,0,0,0,0,0,0,0,0,0.1726,0.1725,0.1688,0.1688,0.1688,0.1684,0.1684,0.1684,0.1681,0.1681,0.1681,0.168,0.1676,0.1676,0.1676,0,0,0,0,0,0,0,0,0,0,0,0,0,0.1714,0.1724,0.1688,0.1685,0.1685,0.1684,0.1684,0.1684,0.1681,0.1681,0.168,0.168,0.1676,0.1676,0.1676,0.1677,0,0,0.1676,0.1676,0,0,0,0,0,0,0,0,0.1715,0.1713,0.1686,0.1686,0.1685,0.1682,0.1696,0.1682,0.1681,0.1683,0.168,0.168,0.1678,0.1678,0.1678,0.1677,0.1677,0.1676,0.1676,0.1676,0.1676,0,0,0,0,0,0,0,0.1716,0.1713,0.1687,0.1686,0.1685,0.1696,0.1694,0.1693,0.1681,0.1682,0.1682,0.1681,0.1678,0.1678,0.1678,0.1677,0.1676,0.1676,0.1676,0.1676,0.1743,0.1745,0,0,0,0,0,0,0.1714,0.1714,0.1687,0.1686,0.17,0.1695,0.1693,0.1684,0.1681,0.1681,0.1681,0.1681,0.1678,0.1678,0.1677,0.1721,0.1676,0.1676,0.1675,0.1741,0.1744,0.1746,0,0,0,0,0,0,0.1714,0.1711,0.1687,0.1701,0.1698,0.1694,0.1684,0.1684,0.1692,0.168,0.168,0.1691,0.1678,0.1678,0.1697,0.1719,0.1676,0.1675,0.1739,0.1742,0.1745,0.1781,0,0,0,0,0,0,0.1715,0.1711,0.1714,0.17,0.1697,0.1697,0.1684,0.1684,0.1691,0.1691,0.1688,0.1687,0.1678,0.1697,0.1697,0.1718,0.1675,0.1737,0.174,0.1744,0.1777,0.1784,0.179,0,0,0,0,0,0.1717,0.1719,0.1714,0.1711,0.1697,0.1698,0.1698,0.1695,0.1692,0.1702,0.1706,0.1688,0.1719,0.1698,0.1697,0.1719,0.1735,0.1739,0.1743,0.1774,0.1783,0.179,0,0,0,0,0,0,0.1739,0.1718,0.1713,0.1709,0.1709,0.1698,0.1708,0.1703,0.1713,0.1717,0.1704,0.1704,0.1737,0.1726,0.1703,0.1753,0.1727,0.1731,0.1751,0.1759,0.1766,0.18,0.1675,0,0,0,0,0,0.1743,0.1738,0.1726,0.1725,0.1727,0.1719,0.1722,0.172,0.1722,0.1726,0.1723,0.1731,0.1752,0.1753,0.1768,0.1783,0.1812,0.1801,0.1808,0.1814,0.1844,0.1943,0.1962,0.1759,0.1759,0.1759,0,0,0.1748,0.174,0.1735,0.173,0.1729,0.1736,0.1721,0.1731,0.1744,0.1724,0.1747,0.1757,0.1766,0.1794,0.1806,0.1784,0.1876,0.1819,0.1823,0.1851,0.195,0.197,0.1988,0.1762,0.1762,0.1761,0,0,0.1757,0.1753,0.1752,0.1756,0.176,0.1759,0.1764,0.1761,0.1772,0.1792,0.1794,0.1817,0.183,0.1843,0.1851,0.1903,0.1918,0.1912,0.1958,0.2054,0.2072,0.2088,0.2101,0.2118,0.1903,0.1903,0.1903,0,0.1768,0.1762,0.1756,0.1763,0.1771,0.1771,0.1782,0.1794,0.18,0.1809,0.1808,0.1867,0.1856,0.1909,0.1931,0.1917,0.1964,0.1919,0.2064,0.2081,0.2097,0.2107,0.2126,0.1905,0.1905,0.1905,0.1905,0,0.1771,0.1777,0.1783,0.1788,0.18,0.1812,0.1825,0.1841,0.1852,0.1856,0.1917,0.1934,0.1964,0.197,0.1966,0.2071,0.2062,0.2069,0.2042,0.212,0.2124,0.2143,0.1908,0.1908,0.1907,0.1906,0,0,0.1767,0.1781,0.1784,0.179,0.1817,0.1818,0.1857,0.1879,0.1911,0.1936,0.1994,0.2028,0.2044,0.2061,0.207,0.2154,0.2269,0.2171,0.2175,0.218,0.2455,0.2208,0.2204,0.2329,0.2334,0.2337,0.2392,0,0.1775,0.1782,0.1799,0.1819,0.1824,0.1849,0.188,0.1903,0.1948,0.2004,0.2043,0.2114,0.2078,0.2129,0.2196,0.2265,0.2333,0.2252,0.2383,0.2386,0.2156,0.2223,0.2039,0.2054,0.2411,0.2414,0.2416,0,0.1769,0.1778,0.1796,0.1822,0.1829,0.1854,0.1913,0.1941,0.2017,0.2077,0.2152,0.2193,0.2282,0.2285,0.2415,0.2378,0.243,0.2482,0.2485,0.2267,0.2176,0.2046,0.2075,0.2447,0.2445,0.2443,0.2441,0,0.1751,0.1772,0.1787,0.1797,0.1833,0.186,0.1884,0.1951,0.2011,0.2153,0.2232,0.232,0.2406,0.2495,0.2511,0.2517,0.2666,0.2666,0.2487,0.2467,0.2338,0.2297,0.2815,0.2815,0.2815,0.2815,0.2815,0,0.1747,0.1759,0.1778,0.1793,0.182,0.1843,0.1921,0.1975,0.2096,0.2187,0.2268,0.2386,0.2493,0.2546,0.2567,0.2528,0.2686,0.2511,0.2485,0.2332,0.2292,0.2666,0.2648,0.2817,0.2816,0.2816,0.2816,0,0.1726,0.1745,0.1766,0.1804,0.1819,0.1837,0.1948,0.2003,0.2125,0.2271,0.2335,0.2478,0.2528,0.2532,0.2669,0.2572,0.2584,0.2546,0.2295,0.2235,0.2313,0.2297,0.237,0.2363,0.2356,0.235,0.2346,0,0.1719,0.1724,0.1765,0.1794,0.1824,0.1872,0.1912,0.2025,0.2106,0.2316,0.2375,0.2483,0.2486,0.2466,0.2382,0.2294,0.2444,0.2081,0.2041,0.231,0.2279,0.2273,0.2266,0.1884,0.1876,0.187,0.1865,0,0.1711,0.1729,0.1754,0.178,0.1829,0.1885,0.1953,0.2019,0.2159,0.2235,0.2331,0.2346,0.2322,0.2119,0.1975,0.1931,0.2053,0.1935,0.2369,0.1975,0.1843,0.1814,0.1826,0.1806,0.1812,0.1816,0.1819,0.1822,0.1716,0.1732,0.1747,0.1772,0.1825,0.1861,0.1882,0.1933,0.198,0.2023,0.2148,0.2052,0.2033,0.1665,0.1558,0.1475,0.1645,0.1581,0.1608,0.164,0.1524,0.1383,0.1235,0.1237,0.1239,0.1241,0.1243,0,0.1722,0.1718,0.1731,0.176,0.1778,0.1825,0.1874,0.1836,0.18,0.1793,0.1766,0.1523,0.1318,0.1303,0.1062,0.098,0.106,0.0947,0.1069,0.1124,0.1175,0.1043,0.0623,0.0621,0.0619,0.0617,0,0,0.1737,0.1727,0.1712,0.1684,0.1722,0.1703,0.1717,0.1605,0.154,0.1368,0.1253,0.1262,0.1259,0.0938,0.0854,0.0705,0.0932,0.0669,0.1168,0.1371,0.1421,0.153,0.1384,0,0,0,0,0]},{"header":{"parameterUnit":"m.s-1","parameterCategory":2,"la1":30.2991,"la2":30.254,"lo1":-89.0895,"lo2":-89.0444,"dy":0.0017,"dx":0.0017,"nx":28,"ny":28,"refTime":"2025-05-26T21:00:00:Z","depth":"2","parameterNumber":3,"parameterNumberName":"V-component_of_CURRENTS"},"data":[0,0,0,0,0,0,0,0,0,0,0,0,0,0,0,0,0,0,0,0,0,0,0,0,0,0,0,0,0,0,0,0,0,0,0,0,0,0,0,0,0,0,0,0,0,0,0,0,0,0,0,0,0,0,0,0,0,0,0.008,0.0081,0,0.0104,0.0104,0.0105,0.0114,0.0113,0.0113,0.0113,0.0127,0.0128,0.0128,0,0,0,0,0,0,0,0,0,0,0,0,0,0.0052,0.0052,0.008,0.0081,0.0081,0.0104,0.0104,0.0105,0.0114,0.0113,0.0113,0.0113,0.0127,0.0128,0.0128,0,0,0,0,0,0,0,0,0,0,0,0,0,0.0069,0.0052,0.008,0.0088,0.0088,0.0104,0.0104,0.0105,0.0114,0.0113,0.0113,0.0113,0.0127,0.0128,0.0128,0.0137,0,0,0.0131,0.0131,0,0,0,0,0,0,0,0,0.0068,0.007,0.0086,0.0087,0.0088,0.0105,0.0099,0.0115,0.0114,0.0105,0.0113,0.0113,0.0119,0.012,0.0126,0.0137,0.0138,0.0131,0.0131,0.0131,0.0132,0,0,0,0,0,0,0,0.0067,0.0069,0.009,0.0087,0.0088,0.0093,0.0095,0.0102,0.0113,0.0105,0.0106,0.0108,0.0119,0.0125,0.0126,0.0138,0.0131,0.0131,0.0132,0.0132,0.0157,0.0158,0,0,0,0,0,0,0.0063,0.0068,0.0089,0.0091,0.0077,0.0093,0.0096,0.01,0.0113,0.0115,0.0108,0.0108,0.0124,0.0125,0.0127,0.0147,0.0131,0.0132,0.0133,0.0157,0.0158,0.0158,0,0,0,0,0,0,0.0062,0.0064,0.0089,0.0079,0.0083,0.0094,0.0099,0.0101,0.0108,0.0115,0.0116,0.0113,0.0124,0.0126,0.0138,0.0147,0.0132,0.0133,0.0157,0.0157,0.0158,0.0181,0,0,0,0,0,0,0.0061,0.0064,0.0067,0.0079,0.0083,0.0101,0.0099,0.0101,0.0109,0.011,0.012,0.0121,0.0124,0.0137,0.0138,0.0148,0.0134,0.0157,0.0157,0.0158,0.018,0.0182,0.0183,0,0,0,0,0,0.006,0.0066,0.0067,0.0069,0.0086,0.0101,0.0104,0.0111,0.011,0.0117,0.0123,0.0121,0.014,0.0138,0.014,0.0149,0.0156,0.0157,0.0157,0.0179,0.0181,0.0183,0,0,0,0,0,0,0.0055,0.0068,0.0069,0.0078,0.0089,0.0103,0.011,0.0113,0.0124,0.0125,0.0127,0.0129,0.0143,0.0141,0.0138,0.0157,0.0147,0.0148,0.0162,0.0165,0.0166,0.018,0.0134,0,0,0,0,0,0.0054,0.0064,0.0075,0.0083,0.0089,0.0099,0.0106,0.0111,0.0122,0.0126,0.0132,0.0138,0.0147,0.0152,0.0159,0.017,0.0188,0.0176,0.0178,0.018,0.0191,0.0247,0.0255,0.0159,0.0159,0.0159,0,0,0.0053,0.0063,0.0067,0.0083,0.0092,0.0109,0.0103,0.0117,0.0132,0.0126,0.0147,0.0147,0.0152,0.0167,0.0172,0.0166,0.0209,0.018,0.0182,0.0193,0.0248,0.0258,0.0267,0.016,0.016,0.016,0,0,0.0064,0.0066,0.0081,0.0093,0.0109,0.0117,0.0121,0.0135,0.0142,0.0159,0.0159,0.0165,0.0178,0.0184,0.0189,0.0205,0.022,0.0204,0.0225,0.0279,0.0288,0.0296,0.0303,0.0312,0.0203,0.0203,0.0203,0,0.0062,0.0085,0.0087,0.0107,0.0121,0.0121,0.0143,0.0151,0.0167,0.0173,0.0168,0.0194,0.0189,0.0215,0.0216,0.0211,0.0235,0.0216,0.0284,0.0292,0.0301,0.0307,0.0316,0.0204,0.0204,0.0204,0.0204,0,0.0087,0.0107,0.0117,0.0144,0.0156,0.0176,0.0186,0.0193,0.0197,0.0204,0.0228,0.023,0.0245,0.024,0.0233,0.028,0.0275,0.0283,0.0282,0.0312,0.0315,0.0325,0.0206,0.0206,0.0205,0.0205,0,0,0.0085,0.0128,0.0132,0.0151,0.018,0.019,0.0211,0.023,0.0245,0.0256,0.0295,0.0289,0.0289,0.0294,0.0289,0.0326,0.0381,0.0331,0.0333,0.0345,0.0482,0.0426,0.0431,0.0417,0.042,0.0421,0.0452,0,0.0109,0.0154,0.0169,0.0207,0.0232,0.0238,0.0255,0.0267,0.0281,0.0316,0.0322,0.0355,0.0311,0.0331,0.0358,0.0393,0.0412,0.037,0.0445,0.0446,0.0401,0.0443,0.0443,0.0468,0.0461,0.0463,0.0464,0,0.0131,0.0162,0.0209,0.0242,0.0251,0.027,0.0296,0.0309,0.0345,0.0361,0.039,0.0412,0.0455,0.0431,0.0487,0.0471,0.0472,0.0488,0.049,0.0443,0.041,0.0441,0.0485,0.048,0.0478,0.0477,0.0476,0,0.0138,0.0185,0.0224,0.024,0.0278,0.0291,0.0299,0.0321,0.0335,0.0403,0.0447,0.0488,0.0562,0.0563,0.0562,0.0549,0.0637,0.062,0.0559,0.0553,0.0569,0.0561,0.0663,0.0663,0.0663,0.0663,0.0663,0,0.0162,0.019,0.0229,0.0254,0.0281,0.0296,0.0321,0.0338,0.0382,0.0447,0.0471,0.0576,0.0616,0.0663,0.0613,0.0611,0.0668,0.0574,0.0573,0.057,0.0562,0.0588,0.0579,0.0664,0.0664,0.0664,0.0664,0,0.0167,0.0199,0.0244,0.0286,0.0291,0.0307,0.0326,0.0347,0.0389,0.0493,0.0532,0.0679,0.0766,0.0729,0.0785,0.0706,0.0679,0.0653,0.0618,0.0611,0.0541,0.0532,0.0605,0.0603,0.0602,0.0601,0.06,0,0.0178,0.0205,0.0257,0.0279,0.0301,0.0315,0.0328,0.035,0.0399,0.0575,0.0658,0.0795,0.0912,0.0911,0.0826,0.071,0.0693,0.0617,0.058,0.0551,0.0543,0.0536,0.0529,0.06,0.06,0.0599,0.0599,0,0.02,0.022,0.0259,0.0297,0.0324,0.0355,0.0396,0.0441,0.0527,0.0656,0.0891,0.1002,0.1027,0.0994,0.0814,0.0729,0.0625,0.0599,0.0637,0.0598,0.0546,0.0537,0.0532,0.0593,0.0594,0.0594,0.0594,0.0595,0.0213,0.0241,0.0288,0.0322,0.0359,0.0435,0.0486,0.0595,0.0738,0.0944,0.1037,0.1165,0.1093,0.0886,0.076,0.0604,0.0618,0.0538,0.0542,0.0546,0.0523,0.047,0.0497,0.0497,0.0497,0.0497,0.0497,0,0.0232,0.0265,0.03,0.0374,0.0427,0.0437,0.0558,0.0665,0.0906,0.1023,0.1194,0.1098,0.1021,0.0877,0.0652,0.0525,0.0528,0.0469,0.0506,0.0512,0.0517,0.0494,0.046,0.0459,0.0459,0.0458,0,0,0.0249,0.0288,0.0308,0.0414,0.0467,0.0569,0.0655,0.0879,0.0996,0.1164,0.1179,0.1173,0.102,0.0838,0.0694,0.0575,0.0565,0.0543,0.0585,0.0652,0.0658,0.0568,0.0539,0,0,0,0,0]}],[{"header":{"parameterUnit":"m.s-1","parameterCategory":2,"la1":30.2991,"la2":30.254,"lo1":-89.0895,"lo2":-89.0444,"dy":0.0017,"dx":0.0017,"nx":28,"ny":28,"refTime":"2025-05-26T21:00:00:Z","depth":"4","parameterNumber":2,"parameterNumberName":"U-component_of_CURRENTS"},"data":[0,0,0,0,0,0,0,0,0,0,0,0,0,0,0,0,0,0,0,0,0,0,0,0,0,0,0,0,0,0,0,0,0,0,0,0,0,0,0,0,0,0,0,0,0,0,0,0,0,0,0,0,0,0,0,0,0,0,0.085,0.085,0,0.0831,0.0831,0.0831,0.0827,0.0827,0.0827,0.0828,0.0861,0.0862,0.0862,0,0,0,0,0,0,0,0,0,0,0,0,0,0.0894,0.0893,0.085,0.085,0.085,0.0831,0.0831,0.0831,0.0827,0.0827,0.0828,0.0828,0.0861,0.0861,0.0862,0,0,0,0,0,0,0,0,0,0,0,0,0,0.0874,0.0892,0.085,0.0846,0.0846,0.0831,0.0831,0.0831,0.0827,0.0827,0.0828,0.0828,0.086,0.0861,0.0862,0.0863,0,0,0.0866,0.0866,0,0,0,0,0,0,0,0,0.0875,0.0873,0.0847,0.0847,0.0846,0.0832,0.0858,0.0844,0.0827,0.0834,0.0828,0.0828,0.0856,0.0858,0.0852,0.0865,0.0866,0.0866,0.0866,0.0867,0.0867,0,0,0,0,0,0,0,0.0877,0.0873,0.0842,0.0847,0.0846,0.0849,0.0846,0.0855,0.0844,0.0833,0.0833,0.0831,0.0856,0.0851,0.0853,0.0867,0.0866,0.0867,0.0867,0.0868,0.0924,0.0925,0,0,0,0,0,0,0.0879,0.0874,0.0843,0.0842,0.0862,0.0848,0.0845,0.0836,0.0843,0.0844,0.0831,0.0831,0.0849,0.0852,0.0854,0.0904,0.0867,0.0868,0.0868,0.0923,0.0924,0.0925,0,0,0,0,0,0,0.088,0.0876,0.0844,0.0859,0.0855,0.0847,0.0837,0.0835,0.0852,0.0841,0.0843,0.0851,0.0849,0.0853,0.0876,0.0904,0.0868,0.0869,0.0922,0.0923,0.0924,0.0973,0,0,0,0,0,0,0.0881,0.0876,0.0881,0.0859,0.0854,0.0846,0.0836,0.0835,0.0849,0.085,0.0859,0.086,0.085,0.0874,0.0877,0.0905,0.087,0.0921,0.0923,0.0924,0.0971,0.0976,0.0981,0,0,0,0,0,0.0882,0.0879,0.0881,0.0878,0.0857,0.0847,0.0845,0.084,0.085,0.0857,0.0864,0.0861,0.0886,0.0876,0.0879,0.0907,0.092,0.0922,0.0924,0.0968,0.0975,0.0981,0,0,0,0,0,0,0.0901,0.0878,0.088,0.0871,0.0868,0.0847,0.0853,0.0856,0.0867,0.0877,0.0871,0.0874,0.0905,0.0898,0.0887,0.0927,0.0904,0.0906,0.0936,0.0943,0.0948,0.0923,0.0871,0,0,0,0,0,0.0908,0.0902,0.0885,0.0883,0.0883,0.0877,0.0878,0.0878,0.0878,0.0884,0.0894,0.0903,0.0911,0.0921,0.0927,0.095,0.0959,0.097,0.0976,0.098,0.0961,0.1022,0.1031,0.0931,0.0931,0.0931,0,0,0.0915,0.0904,0.0901,0.0888,0.0886,0.088,0.0879,0.0886,0.0889,0.0887,0.091,0.0926,0.0922,0.0944,0.0958,0.0946,0.1014,0.0982,0.0986,0.0964,0.1025,0.1035,0.1044,0.0933,0.0932,0.0932,0,0,0.0917,0.0918,0.0911,0.0909,0.091,0.0903,0.0913,0.0912,0.0922,0.0941,0.0944,0.0969,0.0988,0.0985,0.0984,0.102,0.1041,0.1041,0.1047,0.1108,0.1117,0.1125,0.1154,0.1164,0.1043,0.1043,0.1043,0,0.0933,0.0913,0.0912,0.0907,0.0903,0.0916,0.0911,0.0919,0.0932,0.0942,0.0955,0.0994,0.0995,0.1015,0.1022,0.1031,0.1068,0.1027,0.1116,0.1124,0.1131,0.1159,0.1169,0.1045,0.1045,0.1045,0.1045,0,0.0919,0.0915,0.0914,0.0906,0.0907,0.0908,0.0913,0.093,0.0952,0.0964,0.1007,0.1021,0.1044,0.1057,0.1045,0.1099,0.111,0.112,0.1102,0.1144,0.1171,0.1181,0.1049,0.1048,0.1047,0.1047,0,0,0.0919,0.0906,0.0908,0.0896,0.0907,0.0896,0.0914,0.0919,0.0926,0.0978,0.1006,0.1028,0.1068,0.1068,0.1088,0.1124,0.1203,0.1146,0.1148,0.1176,0.1337,0.1193,0.1189,0.1256,0.1258,0.1259,0.1338,0,0.0909,0.0889,0.0891,0.0876,0.0861,0.0877,0.0876,0.0894,0.0926,0.0964,0.1015,0.1053,0.1068,0.1096,0.1145,0.1193,0.1232,0.1179,0.1289,0.129,0.1159,0.1196,0.1265,0.1345,0.1348,0.1349,0.135,0,0.0888,0.0874,0.0858,0.0834,0.083,0.0832,0.0833,0.0839,0.0896,0.0927,0.1004,0.1061,0.1135,0.1144,0.1262,0.1244,0.1287,0.1315,0.132,0.1166,0.1163,0.1293,0.1368,0.1367,0.1366,0.1364,0.1363,0,0.0861,0.0845,0.0828,0.0825,0.0809,0.081,0.0809,0.0838,0.0843,0.0931,0.0968,0.1079,0.1159,0.1237,0.131,0.1312,0.1427,0.1442,0.1344,0.1335,0.1422,0.1412,0.151,0.151,0.1509,0.1509,0.1509,0,0.0829,0.0814,0.0816,0.0804,0.0765,0.0783,0.0769,0.0778,0.0834,0.0858,0.0967,0.1021,0.1196,0.1288,0.1333,0.1362,0.1461,0.1333,0.1344,0.144,0.1432,0.1429,0.1419,0.1512,0.1511,0.1511,0.151,0,0.0787,0.0798,0.0764,0.0755,0.0749,0.0723,0.0726,0.0704,0.0783,0.0833,0.0874,0.1028,0.1146,0.1261,0.1397,0.1381,0.1413,0.1392,0.1469,0.1485,0.1276,0.1268,0.1301,0.1296,0.1292,0.1289,0.1287,0,0.0761,0.0749,0.0719,0.0686,0.0683,0.0661,0.062,0.0665,0.0674,0.0816,0.0837,0.0997,0.1092,0.1181,0.129,0.1357,0.1342,0.1345,0.131,0.1246,0.1256,0.1253,0.1249,0.1281,0.128,0.1279,0.1278,0,0.0709,0.0711,0.068,0.0607,0.0564,0.0507,0.0501,0.0509,0.0588,0.0676,0.0797,0.0885,0.1012,0.113,0.1188,0.1226,0.1335,0.1306,0.1314,0.1281,0.1223,0.1235,0.1236,0.1264,0.1266,0.1268,0.1268,0,0.0672,0.0632,0.0595,0.0511,0.0456,0.0386,0.0385,0.0417,0.0447,0.0642,0.0684,0.0852,0.1013,0.1059,0.1101,0.1133,0.1125,0.1091,0.1111,0.1126,0.1028,0.0926,0.0878,0,0,0,0,0,0.0628,0.057,0.0494,0.0391,0.0329,0.0303,0.0307,0.033,0.0445,0.0499,0.0605,0.0714,0.0828,0.0907,0.0912,0.0989,0.1101,0.0981,0.1063,0.1191,0.1207,0.1104,0,0,0,0,0,0,0.0595,0.0541,0.0473,0.0314,0.0237,0.0155,0.0167,0.0232,0.0291,0.0446,0.0523,0.064,0.0766,0.0835,0.0896,0.0914,0.0939,0.108,0.1076,0.1183,0.1196,0.1209,0.1109,0,0,0,0,0]},{"header":{"parameterUnit":"m.s-1","parameterCategory":2,"la1":30.2991,"la2":30.254,"lo1":-89.0895,"lo2":-89.0444,"dy":0.0017,"dx":0.0017,"nx":28,"ny":28,"refTime":"2025-05-26T21:00:00:Z","depth":"4","parameterNumber":3,"parameterNumberName":"V-component_of_CURRENTS"},"data":[0,0,0,0,0,0,0,0,0,0,0,0,0,0,0,0,0,0,0,0,0,0,0,0,0,0,0,0,0,0,0,0,0,0,0,0,0,0,0,0,0,0,0,0,0,0,0,0,0,0,0,0,0,0,0,0,0,0,0.0046,0.0046,0,0.0067,0.0067,0.0067,0.0073,0.0073,0.0073,0.0073,0.0088,0.0088,0.0089,0,0,0,0,0,0,0,0,0,0,0,0,0,0.002,0.002,0.0046,0.0046,0.0047,0.0067,0.0067,0.0067,0.0073,0.0073,0.0073,0.0072,0.0088,0.0088,0.0089,0,0,0,0,0,0,0,0,0,0,0,0,0,0.0035,0.002,0.0046,0.0052,0.0052,0.0067,0.0067,0.0067,0.0073,0.0073,0.0073,0.0072,0.0087,0.0088,0.0089,0.0098,0,0,0.0091,0.0092,0,0,0,0,0,0,0,0,0.0034,0.0036,0.0051,0.0051,0.0052,0.0067,0.0063,0.0077,0.0073,0.0065,0.0073,0.0072,0.008,0.0082,0.0086,0.0099,0.0099,0.0091,0.0092,0.0092,0.0092,0,0,0,0,0,0,0,0.0033,0.0035,0.0054,0.0051,0.0052,0.0056,0.0058,0.0066,0.0074,0.0066,0.0066,0.0069,0.0081,0.0086,0.0087,0.0099,0.0091,0.0092,0.0093,0.0093,0.0122,0.0123,0,0,0,0,0,0,0.003,0.0034,0.0054,0.0055,0.0042,0.0056,0.0059,0.0063,0.0074,0.0075,0.0069,0.0069,0.0084,0.0086,0.0087,0.0112,0.0092,0.0093,0.0093,0.0122,0.0122,0.0123,0,0,0,0,0,0,0.0029,0.0032,0.0053,0.0045,0.0048,0.0057,0.0061,0.0063,0.0068,0.0076,0.0077,0.0072,0.0084,0.0086,0.0098,0.0112,0.0093,0.0094,0.0122,0.0122,0.0122,0.0152,0,0,0,0,0,0,0.0028,0.0031,0.0033,0.0045,0.0048,0.0064,0.0062,0.0064,0.007,0.007,0.0079,0.0081,0.0084,0.0096,0.0098,0.0112,0.0095,0.0121,0.0122,0.0122,0.015,0.0153,0.0155,0,0,0,0,0,0.0027,0.0033,0.0033,0.0036,0.0051,0.0064,0.0067,0.0072,0.007,0.0076,0.0081,0.008,0.0101,0.0097,0.01,0.0114,0.0121,0.0122,0.0122,0.0149,0.0153,0.0155,0,0,0,0,0,0,0.0022,0.0034,0.0035,0.0043,0.0053,0.0065,0.0071,0.0073,0.0082,0.0083,0.0086,0.0088,0.0102,0.0102,0.0098,0.0123,0.011,0.0111,0.013,0.0133,0.0136,0.0147,0.0095,0,0,0,0,0,0.0021,0.0029,0.004,0.0047,0.0052,0.0061,0.0066,0.0072,0.0081,0.0084,0.009,0.0097,0.0107,0.0115,0.012,0.0137,0.0128,0.0146,0.0149,0.0151,0.0161,0.0154,0.0157,0.0125,0.0125,0.0125,0,0,0.002,0.0029,0.0032,0.0046,0.0054,0.007,0.0064,0.0075,0.0091,0.0085,0.0105,0.0105,0.0112,0.013,0.0136,0.0133,0.0154,0.0152,0.0154,0.0163,0.0155,0.0158,0.0161,0.0125,0.0125,0.0125,0,0,0.0027,0.003,0.0041,0.0052,0.0066,0.0076,0.0079,0.0092,0.0099,0.0116,0.0116,0.0126,0.0139,0.0152,0.0159,0.0178,0.0165,0.0175,0.0204,0.0198,0.02,0.0203,0.019,0.0191,0.0181,0.0181,0.0181,0,0.0025,0.0044,0.0046,0.0063,0.0079,0.0079,0.0101,0.0109,0.0124,0.0139,0.0125,0.0153,0.0153,0.0187,0.0191,0.0186,0.0174,0.0193,0.0201,0.0204,0.0205,0.0192,0.0192,0.0182,0.0182,0.0182,0.0182,0,0.0043,0.0061,0.0069,0.0094,0.0109,0.0127,0.0142,0.0155,0.016,0.0171,0.0197,0.0195,0.0215,0.0213,0.0209,0.023,0.0213,0.0202,0.0195,0.0211,0.0195,0.0195,0.0184,0.0184,0.0183,0.0183,0,0,0.0038,0.0076,0.0079,0.0106,0.013,0.0151,0.0175,0.0207,0.0235,0.0235,0.0268,0.0276,0.0273,0.028,0.0274,0.0269,0.0264,0.0243,0.0241,0.0232,0.0243,0.0229,0.0227,0.025,0.0251,0.0251,0.0224,0,0.0055,0.0098,0.0112,0.0161,0.0188,0.0204,0.0237,0.0264,0.0276,0.0304,0.0302,0.0324,0.03,0.0309,0.0301,0.0278,0.0267,0.0273,0.0227,0.0226,0.0214,0.0228,0.0252,0.0224,0.0224,0.0224,0.0224,0,0.0071,0.0104,0.0151,0.0216,0.023,0.0259,0.0319,0.0347,0.0377,0.039,0.0403,0.039,0.0396,0.036,0.0332,0.0334,0.0293,0.0265,0.0263,0.0243,0.0213,0.0206,0.0224,0.0224,0.0224,0.0224,0.0224,0,0.0079,0.0135,0.0179,0.0198,0.0262,0.0295,0.0333,0.0375,0.0419,0.044,0.0462,0.0456,0.046,0.0411,0.0345,0.0338,0.0297,0.0281,0.023,0.0228,0.0235,0.0232,0.0253,0.0253,0.0253,0.0253,0.0253,0,0.0097,0.0135,0.019,0.0217,0.0291,0.0323,0.0402,0.0432,0.0485,0.0535,0.0509,0.0527,0.0471,0.0432,0.0364,0.03,0.0311,0.0242,0.0225,0.0246,0.0245,0.0234,0.0232,0.0252,0.0253,0.0253,0.0253,0,0.0098,0.013,0.0189,0.0262,0.0297,0.0348,0.0457,0.0514,0.0547,0.0605,0.0612,0.0595,0.0542,0.0471,0.0391,0.0335,0.0265,0.0233,0.0261,0.0244,0.0195,0.0195,0.0188,0.0187,0.0187,0.0186,0.0186,0,0.0104,0.0131,0.0218,0.027,0.0309,0.0398,0.0471,0.0543,0.0595,0.0637,0.0658,0.0625,0.0595,0.0477,0.0396,0.0277,0.0251,0.0214,0.0208,0.0207,0.0191,0.0192,0.0192,0.0185,0.0185,0.0185,0.0185,0,0.0118,0.014,0.0189,0.0286,0.0369,0.0477,0.057,0.0608,0.0675,0.0706,0.0694,0.0631,0.0574,0.0474,0.0385,0.0293,0.0242,0.0209,0.0209,0.0203,0.0203,0.0188,0.0189,0.0183,0.0183,0.0183,0.0184,0,0.0125,0.0156,0.0215,0.0307,0.0413,0.0519,0.0573,0.0635,0.0692,0.0716,0.0705,0.0636,0.0607,0.0481,0.0392,0.0311,0.0288,0.0252,0.025,0.0251,0.0273,0.0283,0.0281,0,0,0,0,0,0.0137,0.0174,0.0246,0.0345,0.0446,0.0518,0.0628,0.067,0.0712,0.0707,0.071,0.0645,0.0527,0.0474,0.0391,0.0379,0.0273,0.0278,0.0229,0.0173,0.0175,0.0189,0,0,0,0,0,0,0.015,0.0201,0.0235,0.0358,0.0432,0.0557,0.0629,0.0664,0.0659,0.0675,0.0612,0.0605,0.0489,0.0564,0.0379,0.0358,0.0312,0.0232,0.023,0.0172,0.0174,0.0176,0.019,0,0,0,0,0]}]]